Location: Katowice
(50.2611°N, 19.0242°E)
Time: 03:12:08
(UTC+02:00)

Explorer 7 - Pass Details

Date: 30 August 2019
Orbit: 485 x 680 km, 50.3° (Epoch: 17 October)

Event Time Altitude Azimuth Distance (km) Brightness Sun altitude
Rises 07:07:17 0° 213° (SSW) 3,022 10.3 10.6°
Reaches altitude 10° 07:09:54 10° 202° (SSW) 2,111 9.6 11.0°
Maximum altitude 07:14:04 28° 144° (SE) 1,253 9.3 11.7°
Drops below altitude 10° 07:18:10 10° 86° (E) 2,083 12.9 12.3°
Sets 07:20:44 0° 75° (ENE) 2,974 12.2 12.7°
